AAL1578 KBOS-KLAX

Flight info

Callsign AAL1578
Flight time N/A
Altitude 34000
Route SYR080019 JOT BDF BRL IRK/N0446F360 J96 AGENT KK54C PENUT ALS ESGEE Q90 DNERO ANJLL4 KLAX
Aircraft A321/M-SDE3GIRWXYZ/LB2

Departure

Time N/A
Airport Boston Logan International Airport (KBOS)

Arrival

Time 2026-04-21 05:13
Airport Los Angeles International Airport (KLAX)
Time Latitude Longitude Altitude Speed Heading
2026-04-21 00:37 42.66738 -79.43041 34336 ft 441 kts 252°
2026-04-21 00:38 42.64667 -79.50635 34343 ft 422 kts 267°
2026-04-21 00:38 42.63892 -79.58425 34344 ft 416 kts 273°
2026-04-21 00:39 42.63248 -79.66228 34349 ft 416 kts 272°
2026-04-21 00:39 42.62590 -79.74002 34347 ft 416 kts 272°
2026-04-21 00:40 42.61919 -79.81786 34347 ft 416 kts 272°
2026-04-21 00:40 42.61237 -79.89554 34343 ft 417 kts 272°
2026-04-21 00:41 42.60547 -79.97362 34349 ft 416 kts 272°
2026-04-21 00:41 42.59853 -80.05151 34347 ft 417 kts 272°
2026-04-21 00:42 42.59152 -80.12933 34339 ft 417 kts 272°
2026-04-21 00:42 42.58447 -80.20711 34342 ft 416 kts 272°
2026-04-21 00:43 42.57731 -80.28554 34349 ft 416 kts 272°
2026-04-21 00:43 42.57016 -80.36315 34347 ft 416 kts 272°
2026-04-21 00:44 42.56295 -80.44083 34348 ft 416 kts 272°
2026-04-21 00:44 42.55573 -80.51831 34356 ft 415 kts 271°
2026-04-21 00:45 42.54479 -80.63428 34351 ft 415 kts 271°
2026-04-21 00:45 42.53741 -80.71171 34350 ft 417 kts 271°
2026-04-21 00:46 42.52994 -80.78961 34352 ft 416 kts 271°
2026-04-21 00:46 42.52242 -80.86742 34352 ft 416 kts 271°
2026-04-21 00:47 42.51494 -80.94439 34350 ft 416 kts 271°
2026-04-21 00:47 42.50731 -81.02228 34350 ft 416 kts 271°
2026-04-21 00:48 42.49969 -81.09949 34353 ft 415 kts 271°
2026-04-21 00:48 42.49198 -81.17705 34353 ft 415 kts 271°
2026-04-21 00:49 42.48429 -81.25390 34357 ft 415 kts 271°
2026-04-21 00:49 42.47650 -81.33122 34353 ft 415 kts 271°
2026-04-21 00:50 42.46862 -81.40885 34354 ft 416 kts 271°
2026-04-21 00:50 42.46076 -81.48587 34351 ft 416 kts 271°
2026-04-21 00:51 42.45280 -81.56321 34350 ft 416 kts 271°
2026-04-21 00:51 42.44474 -81.64101 34346 ft 416 kts 271°
2026-04-21 00:52 42.43669 -81.71826 34343 ft 416 kts 270°
2026-04-21 00:52 42.42853 -81.79592 34341 ft 415 kts 270°
2026-04-21 00:53 42.42038 -81.87307 34337 ft 414 kts 270°
2026-04-21 00:53 42.41221 -81.95006 34337 ft 414 kts 270°
2026-04-21 00:54 42.40392 -82.02739 34340 ft 415 kts 270°
2026-04-21 00:54 42.39561 -82.10451 34337 ft 416 kts 271°
2026-04-21 00:55 42.38726 -82.18160 34334 ft 416 kts 270°
2026-04-21 00:55 42.37884 -82.25874 34330 ft 415 kts 270°
2026-04-21 00:56 42.37036 -82.33586 34324 ft 415 kts 270°
2026-04-21 00:56 42.36183 -82.41297 34318 ft 415 kts 270°
2026-04-21 00:57 42.35330 -82.48963 34318 ft 414 kts 270°
2026-04-21 00:57 42.34472 -82.56649 34318 ft 414 kts 270°
2026-04-21 00:58 42.33601 -82.64367 34319 ft 415 kts 270°
2026-04-21 00:58 42.32727 -82.72083 34317 ft 416 kts 270°
2026-04-21 00:59 42.31846 -82.79808 34320 ft 416 kts 270°
2026-04-21 00:59 42.30968 -82.87474 34319 ft 417 kts 270°
2026-04-21 01:00 42.30074 -82.95198 34323 ft 416 kts 270°
2026-04-21 01:00 42.29174 -83.02940 34324 ft 416 kts 270°
2026-04-21 01:01 42.28275 -83.10640 34334 ft 415 kts 270°
2026-04-21 01:01 42.27377 -83.18275 34330 ft 414 kts 270°
2026-04-21 01:02 42.26466 -83.25971 34320 ft 414 kts 270°
2026-04-21 01:02 42.25554 -83.33637 34318 ft 415 kts 270°
2026-04-21 01:03 42.24638 -83.41309 34317 ft 415 kts 270°
2026-04-21 01:03 42.23715 -83.48981 34310 ft 415 kts 270°
2026-04-21 01:04 42.22784 -83.56670 34307 ft 415 kts 270°
2026-04-21 01:04 42.21850 -83.64319 34305 ft 413 kts 270°
2026-04-21 01:05 42.20911 -83.72001 34306 ft 415 kts 269°
2026-04-21 01:05 42.19963 -83.79707 34301 ft 414 kts 269°
2026-04-21 01:06 42.19013 -83.87365 34300 ft 414 kts 269°
2026-04-21 01:06 42.18059 -83.95015 34295 ft 414 kts 270°
2026-04-21 01:07 42.17109 -84.02608 34292 ft 413 kts 269°
2026-04-21 01:07 42.16146 -84.10246 34299 ft 413 kts 269°
2026-04-21 01:08 42.15181 -84.17866 34290 ft 412 kts 270°
2026-04-21 01:08 42.14214 -84.25451 34292 ft 414 kts 270°
2026-04-21 01:09 42.13240 -84.33062 34288 ft 413 kts 270°
2026-04-21 01:09 42.12259 -84.40686 34287 ft 412 kts 270°
2026-04-21 01:10 42.11276 -84.48275 34296 ft 413 kts 270°
2026-04-21 01:10 42.10281 -84.55905 34285 ft 412 kts 270°
2026-04-21 01:11 42.09286 -84.63505 34293 ft 412 kts 270°
2026-04-21 01:11 42.08286 -84.71117 34288 ft 412 kts 269°
2026-04-21 01:12 42.07278 -84.78735 34279 ft 413 kts 269°
2026-04-21 01:12 42.06268 -84.86345 34282 ft 413 kts 269°
2026-04-21 01:13 42.05251 -84.93941 34285 ft 413 kts 269°
2026-04-21 01:13 42.04223 -85.01590 34276 ft 413 kts 269°
2026-04-21 01:14 42.03201 -85.09158 34269 ft 413 kts 270°
2026-04-21 01:14 42.02171 -85.16750 34270 ft 413 kts 269°
2026-04-21 01:15 42.01138 -85.24317 34267 ft 413 kts 269°
2026-04-21 01:15 42.00096 -85.31910 34266 ft 412 kts 269°
2026-04-21 01:16 41.99050 -85.39493 34270 ft 411 kts 269°
2026-04-21 01:16 41.97998 -85.47084 34263 ft 413 kts 269°
2026-04-21 01:17 41.96946 -85.54638 34266 ft 413 kts 269°
2026-04-21 01:17 41.95882 -85.62237 34260 ft 412 kts 269°
2026-04-21 01:18 41.94824 -85.69759 34262 ft 413 kts 268°
2026-04-21 01:18 41.93742 -85.77414 34253 ft 414 kts 268°
2026-04-21 01:19 41.92658 -85.85040 34253 ft 415 kts 268°
2026-04-21 01:19 41.91575 -85.92616 34251 ft 414 kts 268°
2026-04-21 01:20 41.90480 -86.00253 34248 ft 415 kts 268°
2026-04-21 01:20 41.89378 -86.07891 34250 ft 416 kts 268°
2026-04-21 01:21 41.88274 -86.15496 34258 ft 415 kts 268°
2026-04-21 01:21 41.87163 -86.23112 34253 ft 415 kts 268°
2026-04-21 01:22 41.86044 -86.30764 34253 ft 415 kts 268°
2026-04-21 01:22 41.84931 -86.38333 34250 ft 415 kts 268°
2026-04-21 01:23 41.83804 -86.45950 34250 ft 414 kts 268°
2026-04-21 01:23 41.82676 -86.53539 34246 ft 414 kts 268°
2026-04-21 01:24 41.81552 -86.61086 34240 ft 414 kts 268°
2026-04-21 01:24 41.80416 -86.68654 34239 ft 416 kts 267°
2026-04-21 01:25 41.79274 -86.76232 34239 ft 416 kts 267°
2026-04-21 01:25 41.78125 -86.83829 34236 ft 416 kts 267°
2026-04-21 01:26 41.76971 -86.91410 34236 ft 415 kts 267°
2026-04-21 01:26 41.75810 -86.99004 34230 ft 414 kts 267°
2026-04-21 01:27 41.74647 -87.06576 34230 ft 414 kts 267°
2026-04-21 01:27 41.73508 -87.13966 34225 ft 413 kts 267°
2026-04-21 01:28 41.72342 -87.21491 34223 ft 412 kts 267°
2026-04-21 01:28 41.71167 -87.29034 34224 ft 412 kts 267°
2026-04-21 01:29 41.69995 -87.36546 34227 ft 412 kts 267°
2026-04-21 01:29 41.68812 -87.44076 34228 ft 413 kts 267°
2026-04-21 01:30 41.67635 -87.51532 34224 ft 411 kts 267°
2026-04-21 01:30 41.66447 -87.59025 34218 ft 412 kts 267°
2026-04-21 01:31 41.65254 -87.66528 34209 ft 411 kts 266°
2026-04-21 01:31 41.64056 -87.74025 34206 ft 410 kts 266°
2026-04-21 01:32 41.62860 -87.81464 34213 ft 410 kts 266°
2026-04-21 01:32 41.61654 -87.88953 34215 ft 409 kts 267°
2026-04-21 01:33 41.60447 -87.96401 34214 ft 407 kts 266°
2026-04-21 01:33 41.59248 -88.03773 34212 ft 407 kts 267°
2026-04-21 01:34 41.58043 -88.11153 34212 ft 407 kts 267°
2026-04-21 01:34 41.56827 -88.18574 34210 ft 407 kts 266°
2026-04-21 01:35 41.55609 -88.25959 34208 ft 407 kts 266°
2026-04-21 01:35 41.54099 -88.33259 34205 ft 414 kts 261°
2026-04-21 01:36 41.52051 -88.40466 34203 ft 417 kts 258°
2026-04-21 01:36 41.49888 -88.47717 34197 ft 417 kts 258°
2026-04-21 01:37 41.47740 -88.54885 34194 ft 416 kts 258°
2026-04-21 01:37 41.45597 -88.62025 34190 ft 416 kts 258°
2026-04-21 01:38 41.43428 -88.69225 34192 ft 416 kts 257°
2026-04-21 01:38 41.41274 -88.76360 34185 ft 416 kts 257°
2026-04-21 01:39 41.39096 -88.83556 34188 ft 416 kts 257°
2026-04-21 01:39 41.36942 -88.90656 34186 ft 416 kts 257°
2026-04-21 01:40 41.34763 -88.97813 34185 ft 416 kts 257°
2026-04-21 01:40 41.32589 -89.04929 34191 ft 416 kts 257°
2026-04-21 01:41 41.30402 -89.12079 34193 ft 415 kts 257°
2026-04-21 01:41 41.28227 -89.19170 34194 ft 416 kts 257°
2026-04-21 01:42 41.26038 -89.26280 34185 ft 416 kts 257°
2026-04-21 01:42 41.23842 -89.33397 34181 ft 415 kts 257°
2026-04-21 01:43 41.21652 -89.40487 34176 ft 416 kts 257°
2026-04-21 01:43 41.19453 -89.47579 34176 ft 416 kts 257°
2026-04-21 01:44 41.17238 -89.54701 34175 ft 415 kts 256°
2026-04-21 01:44 41.15022 -89.61771 34173 ft 416 kts 256°
2026-04-21 01:45 41.12748 -89.68886 34171 ft 416 kts 255°
2026-04-21 01:45 41.10490 -89.75933 34168 ft 416 kts 255°
2026-04-21 01:46 41.08238 -89.82950 34162 ft 414 kts 255°
2026-04-21 01:46 41.05966 -89.90015 34160 ft 415 kts 255°
2026-04-21 01:47 41.03714 -89.97005 34155 ft 414 kts 255°
2026-04-21 01:47 41.01442 -90.04039 34154 ft 415 kts 255°
2026-04-21 01:48 40.99166 -90.11062 34154 ft 415 kts 255°
2026-04-21 01:48 40.96885 -90.18090 34147 ft 415 kts 255°
2026-04-21 01:49 40.94609 -90.25081 34152 ft 415 kts 255°
2026-04-21 01:49 40.92321 -90.32094 34151 ft 415 kts 255°
2026-04-21 01:50 40.90012 -90.39150 34150 ft 415 kts 255°
2026-04-21 01:50 40.87716 -90.46148 34147 ft 415 kts 255°
2026-04-21 01:51 40.85413 -90.53159 34146 ft 415 kts 255°
2026-04-21 01:51 40.83115 -90.60120 34145 ft 415 kts 255°
2026-04-21 01:52 40.79651 -90.70597 34136 ft 414 kts 254°
2026-04-21 01:53 40.77345 -90.77550 34133 ft 414 kts 254°
2026-04-21 01:53 40.75030 -90.84515 34129 ft 414 kts 254°
2026-04-21 01:54 40.72713 -90.91464 34129 ft 415 kts 254°
2026-04-21 01:54 40.70369 -90.98350 34128 ft 415 kts 253°
2026-04-21 01:55 40.67955 -91.05334 34130 ft 416 kts 253°
2026-04-21 01:55 40.65564 -91.12253 34132 ft 416 kts 253°
2026-04-21 01:56 40.63176 -91.19156 34130 ft 416 kts 253°
2026-04-21 01:56 40.60772 -91.26092 34133 ft 416 kts 253°
2026-04-21 01:57 40.58375 -91.32982 34134 ft 416 kts 253°
2026-04-21 01:57 40.55955 -91.39925 34133 ft 416 kts 253°
2026-04-21 01:58 40.53554 -91.46802 34131 ft 415 kts 253°
2026-04-21 01:58 40.51131 -91.53726 34126 ft 415 kts 252°
2026-04-21 01:59 40.48718 -91.60604 34123 ft 415 kts 252°
2026-04-21 01:59 40.46291 -91.67500 34115 ft 415 kts 252°
2026-04-21 02:00 40.43870 -91.74365 34117 ft 415 kts 252°
2026-04-21 02:00 40.41440 -91.81241 34117 ft 416 kts 252°
2026-04-21 02:01 40.39001 -91.88127 34112 ft 416 kts 252°
2026-04-21 02:01 40.36563 -91.94995 34111 ft 416 kts 251°
2026-04-21 02:02 40.34114 -92.01868 34108 ft 416 kts 252°
2026-04-21 02:02 40.31667 -92.08730 34109 ft 416 kts 251°
2026-04-21 02:03 40.29211 -92.15593 34109 ft 416 kts 251°
2026-04-21 02:03 40.26761 -92.22427 34110 ft 415 kts 251°
2026-04-21 02:04 40.24301 -92.29273 34110 ft 415 kts 251°
2026-04-21 02:04 40.21850 -92.36084 34111 ft 415 kts 251°
2026-04-21 02:05 40.19387 -92.42909 34112 ft 416 kts 251°
2026-04-21 02:05 40.16909 -92.49754 34119 ft 416 kts 251°
2026-04-21 02:06 40.14504 -92.56554 34122 ft 414 kts 253°
2026-04-21 02:06 40.12557 -92.63586 34122 ft 410 kts 259°
2026-04-21 02:07 40.10992 -92.70753 34114 ft 410 kts 259°
2026-04-21 02:07 40.09444 -92.77910 34113 ft 411 kts 259°
2026-04-21 02:08 40.07892 -92.85055 34108 ft 411 kts 259°
2026-04-21 02:08 40.06327 -92.92244 34110 ft 411 kts 259°
2026-04-21 02:09 40.04763 -92.99403 34106 ft 411 kts 259°
2026-04-21 02:09 40.03188 -93.06587 34109 ft 411 kts 259°
2026-04-21 02:10 40.01608 -93.13781 34109 ft 411 kts 259°
2026-04-21 02:10 40.00033 -93.20918 34105 ft 411 kts 259°
2026-04-21 02:11 39.98436 -93.28143 34104 ft 411 kts 259°
2026-04-21 02:11 39.96851 -93.35278 34102 ft 411 kts 259°
2026-04-21 02:12 39.95262 -93.42413 34106 ft 411 kts 259°
2026-04-21 02:12 39.93672 -93.49541 34104 ft 411 kts 259°
2026-04-21 02:13 39.92071 -93.56680 34104 ft 411 kts 258°
2026-04-21 02:13 39.90469 -93.63806 34104 ft 410 kts 258°
2026-04-21 02:14 39.88851 -93.70975 34103 ft 411 kts 258°
2026-04-21 02:14 39.87244 -93.78072 34098 ft 410 kts 258°
2026-04-21 02:15 39.85635 -93.85172 34101 ft 410 kts 258°
2026-04-21 02:15 39.84015 -93.92283 34099 ft 409 kts 258°
2026-04-21 02:16 39.82398 -93.99372 34100 ft 409 kts 258°
2026-04-21 02:16 39.80775 -94.06460 34100 ft 410 kts 257°
2026-04-21 02:17 39.79142 -94.13563 34099 ft 410 kts 257°
2026-04-21 02:17 39.77502 -94.20667 34110 ft 411 kts 257°
2026-04-21 02:18 39.75847 -94.27795 34112 ft 411 kts 257°
2026-04-21 02:18 39.74208 -94.34844 34107 ft 411 kts 257°
2026-04-21 02:19 39.72547 -94.41960 34105 ft 411 kts 257°
2026-04-21 02:19 39.70890 -94.49045 34098 ft 412 kts 257°
2026-04-21 02:20 39.69223 -94.56147 34095 ft 411 kts 257°
2026-04-21 02:20 39.67543 -94.63279 34092 ft 411 kts 257°
2026-04-21 02:21 39.65868 -94.70375 34091 ft 411 kts 256°
2026-04-21 02:21 39.64189 -94.77469 34085 ft 412 kts 256°
2026-04-21 02:22 39.62508 -94.84547 34089 ft 412 kts 256°
2026-04-21 02:22 39.60888 -94.91647 34083 ft 410 kts 259°
2026-04-21 02:23 39.59558 -94.98836 34089 ft 411 kts 259°
2026-04-21 02:23 39.58235 -95.06033 34081 ft 410 kts 259°
2026-04-21 02:24 39.56897 -95.13295 34084 ft 412 kts 259°
2026-04-21 02:24 39.55570 -95.20465 34077 ft 412 kts 259°
2026-04-21 02:25 39.54224 -95.27701 34071 ft 411 kts 259°
2026-04-21 02:25 39.52885 -95.34882 34071 ft 412 kts 259°
2026-04-21 02:26 39.51534 -95.42113 34076 ft 411 kts 259°
2026-04-21 02:26 39.50170 -95.49377 34070 ft 412 kts 259°
2026-04-21 02:27 39.48814 -95.56567 34072 ft 412 kts 259°
2026-04-21 02:27 39.47458 -95.63741 34068 ft 412 kts 259°
2026-04-21 02:28 39.46090 -95.70935 34067 ft 412 kts 258°
2026-04-21 02:28 39.44717 -95.78146 34065 ft 413 kts 258°
2026-04-21 02:29 39.43337 -95.85370 34067 ft 414 kts 258°
2026-04-21 02:29 39.41951 -95.92586 34062 ft 414 kts 258°
2026-04-21 02:30 39.40561 -95.99810 34064 ft 414 kts 258°
2026-04-21 02:30 39.39167 -96.07011 34072 ft 414 kts 258°
2026-04-21 02:31 39.37761 -96.14258 34069 ft 413 kts 258°
2026-04-21 02:31 39.36346 -96.21516 34059 ft 413 kts 258°
2026-04-21 02:32 39.34943 -96.28702 34061 ft 414 kts 258°
2026-04-21 02:32 39.33523 -96.35942 34052 ft 414 kts 257°
2026-04-21 02:33 39.32114 -96.43111 34055 ft 414 kts 257°
2026-04-21 02:33 39.30691 -96.50316 34057 ft 415 kts 257°
2026-04-21 02:34 39.29258 -96.57542 34054 ft 415 kts 257°
2026-04-21 02:34 39.27810 -96.64819 34056 ft 415 kts 257°
2026-04-21 02:35 39.26366 -96.72055 34055 ft 416 kts 257°
2026-04-21 02:35 39.24911 -96.79315 34061 ft 416 kts 257°
2026-04-21 02:36 39.23466 -96.86513 34050 ft 416 kts 256°
2026-04-21 02:36 39.22040 -96.93587 34046 ft 416 kts 256°
2026-04-21 02:37 39.20574 -97.00822 34042 ft 417 kts 256°
2026-04-21 02:37 39.19097 -97.08085 34031 ft 417 kts 257°
2026-04-21 02:38 39.17623 -97.15320 34032 ft 417 kts 257°
2026-04-21 02:38 39.16146 -97.22547 34029 ft 417 kts 257°
2026-04-21 02:39 39.14664 -97.29771 34025 ft 417 kts 256°
2026-04-21 02:39 39.13173 -97.37014 34024 ft 417 kts 256°
2026-04-21 02:40 39.11683 -97.44222 34028 ft 417 kts 256°
2026-04-21 02:40 39.10186 -97.51440 34028 ft 418 kts 257°
2026-04-21 02:41 39.08691 -97.58629 34029 ft 418 kts 257°
2026-04-21 02:41 39.07181 -97.65867 34034 ft 418 kts 256°
2026-04-21 02:42 39.05677 -97.73043 34027 ft 417 kts 256°
2026-04-21 02:42 39.04166 -97.80248 34026 ft 417 kts 256°
2026-04-21 02:43 39.02653 -97.87425 34026 ft 418 kts 256°
2026-04-21 02:43 39.01125 -97.94647 34024 ft 419 kts 256°
2026-04-21 02:44 38.99584 -98.01862 34019 ft 419 kts 256°
2026-04-21 02:44 38.97960 -98.09032 34010 ft 419 kts 255°
2026-04-21 02:45 38.96312 -98.16258 34011 ft 420 kts 255°
2026-04-21 02:45 38.94673 -98.23442 34009 ft 420 kts 255°
2026-04-21 02:46 38.93028 -98.30646 34000 ft 420 kts 255°
2026-04-21 02:46 38.91381 -98.37840 34001 ft 421 kts 255°
2026-04-21 02:47 38.89722 -98.45066 33995 ft 421 kts 255°
2026-04-21 02:47 38.88068 -98.52249 33990 ft 421 kts 255°
2026-04-21 02:48 38.86402 -98.59460 33989 ft 422 kts 255°
2026-04-21 02:48 38.84719 -98.66724 33995 ft 422 kts 255°
2026-04-21 02:49 38.83050 -98.73898 33996 ft 422 kts 255°
2026-04-21 02:49 38.81368 -98.81108 34000 ft 423 kts 255°
2026-04-21 02:50 38.79673 -98.88356 34004 ft 424 kts 255°
2026-04-21 02:50 38.77970 -98.95615 34003 ft 424 kts 255°
2026-04-21 02:51 38.76265 -99.02863 33990 ft 424 kts 255°
2026-04-21 02:51 38.74552 -99.10116 33996 ft 425 kts 255°
2026-04-21 02:52 38.72837 -99.17356 33994 ft 424 kts 255°
2026-04-21 02:52 38.71121 -99.24580 33994 ft 424 kts 255°
2026-04-21 02:53 38.69399 -99.31806 34004 ft 425 kts 255°
2026-04-21 02:53 38.67668 -99.39052 34010 ft 425 kts 255°
2026-04-21 02:54 38.65933 -99.46299 34011 ft 427 kts 255°
2026-04-21 02:54 38.64194 -99.53528 34009 ft 428 kts 255°
2026-04-21 02:55 38.62444 -99.60781 34014 ft 427 kts 255°
2026-04-21 02:55 38.60931 -99.68132 34017 ft 427 kts 258°
2026-04-21 02:56 38.59626 -99.75504 34018 ft 426 kts 258°
2026-04-21 02:56 38.57654 -99.86628 34015 ft 427 kts 258°
2026-04-21 02:57 38.56336 -99.94021 34027 ft 427 kts 259°
2026-04-21 02:57 38.55002 -100.01473 34027 ft 428 kts 258°
2026-04-21 02:58 38.53671 -100.08888 34022 ft 428 kts 258°
2026-04-21 02:58 38.52340 -100.16270 34027 ft 429 kts 258°
2026-04-21 02:59 38.50995 -100.23697 34030 ft 429 kts 258°
2026-04-21 02:59 38.49651 -100.31091 34033 ft 430 kts 258°
2026-04-21 03:00 38.48297 -100.38508 34031 ft 430 kts 258°
2026-04-21 03:00 38.46937 -100.45933 34030 ft 430 kts 258°
2026-04-21 03:01 38.45562 -100.53409 34039 ft 429 kts 258°
2026-04-21 03:01 38.44188 -100.60858 34032 ft 429 kts 258°
2026-04-21 03:02 38.42822 -100.68226 34034 ft 430 kts 257°
2026-04-21 03:02 38.41444 -100.75638 34028 ft 430 kts 258°
2026-04-21 03:03 38.40064 -100.83031 34030 ft 429 kts 257°
2026-04-21 03:03 38.38679 -100.90419 34024 ft 428 kts 257°
2026-04-21 03:04 38.37291 -100.97808 34026 ft 429 kts 257°
2026-04-21 03:04 38.35892 -101.05210 34033 ft 428 kts 257°
2026-04-21 03:05 38.34497 -101.12568 34040 ft 428 kts 257°
2026-04-21 03:05 38.33100 -101.19920 34039 ft 429 kts 257°
2026-04-21 03:06 38.31683 -101.27344 34044 ft 429 kts 257°
2026-04-21 03:06 38.30279 -101.34671 34046 ft 429 kts 257°
2026-04-21 03:07 38.28851 -101.42101 34050 ft 429 kts 257°
2026-04-21 03:07 38.27433 -101.49449 34046 ft 430 kts 257°
2026-04-21 03:08 38.26001 -101.56831 34048 ft 430 kts 257°
2026-04-21 03:08 38.24565 -101.64220 34055 ft 431 kts 258°
2026-04-21 03:09 38.23122 -101.71622 34061 ft 431 kts 257°
2026-04-21 03:09 38.21678 -101.79001 34059 ft 430 kts 257°
2026-04-21 03:10 38.20220 -101.86427 34061 ft 431 kts 257°
2026-04-21 03:10 38.18765 -101.93802 34060 ft 431 kts 257°
2026-04-21 03:11 38.17302 -102.01184 34064 ft 432 kts 257°
2026-04-21 03:11 38.15830 -102.08594 34063 ft 432 kts 257°
2026-04-21 03:12 38.14355 -102.16000 34063 ft 431 kts 257°
2026-04-21 03:12 38.12875 -102.23398 34065 ft 431 kts 257°
2026-04-21 03:13 38.11401 -102.30735 34065 ft 430 kts 257°
2026-04-21 03:13 38.09915 -102.38116 34059 ft 431 kts 257°
2026-04-21 03:14 38.08430 -102.45459 34060 ft 431 kts 257°
2026-04-21 03:14 38.06930 -102.52853 34053 ft 431 kts 257°
2026-04-21 03:15 38.05435 -102.60197 34038 ft 431 kts 257°
2026-04-21 03:15 38.03932 -102.67558 34031 ft 431 kts 256°
2026-04-21 03:16 38.02414 -102.74963 34029 ft 431 kts 256°
2026-04-21 03:16 38.00941 -102.82124 34035 ft 430 kts 256°
2026-04-21 03:17 37.99424 -102.89465 34042 ft 429 kts 257°
2026-04-21 03:17 37.97913 -102.96767 34054 ft 430 kts 257°
2026-04-21 03:18 37.96386 -103.04120 34063 ft 430 kts 257°
2026-04-21 03:18 37.94862 -103.11433 34065 ft 430 kts 257°
2026-04-21 03:19 37.93321 -103.18802 34072 ft 430 kts 256°
2026-04-21 03:19 37.91777 -103.26150 34076 ft 430 kts 257°
2026-04-21 03:20 37.90236 -103.33462 34069 ft 428 kts 257°
2026-04-21 03:20 37.88699 -103.40737 34071 ft 427 kts 257°
2026-04-21 03:21 37.87143 -103.48080 34074 ft 427 kts 257°
2026-04-21 03:21 37.85593 -103.55371 34084 ft 427 kts 256°
2026-04-21 03:22 37.84041 -103.62645 34096 ft 427 kts 256°
2026-04-21 03:22 37.82484 -103.69907 34107 ft 428 kts 256°
2026-04-21 03:23 37.80913 -103.77217 34116 ft 428 kts 256°
2026-04-21 03:23 37.79358 -103.84426 34118 ft 426 kts 256°
2026-04-21 03:24 37.77790 -103.91675 34125 ft 426 kts 256°
2026-04-21 03:24 37.76237 -103.98839 34128 ft 426 kts 256°
2026-04-21 03:25 37.74658 -104.06089 34139 ft 427 kts 256°
2026-04-21 03:25 37.73074 -104.13345 34149 ft 427 kts 256°
2026-04-21 03:26 37.71491 -104.20572 34179 ft 429 kts 256°
2026-04-21 03:26 37.69904 -104.27792 34197 ft 429 kts 256°
2026-04-21 03:27 37.68300 -104.35059 34219 ft 430 kts 256°
2026-04-21 03:27 37.66696 -104.42308 34232 ft 430 kts 256°
2026-04-21 03:28 37.65080 -104.49599 34244 ft 431 kts 256°
2026-04-21 03:28 37.63453 -104.56910 34256 ft 431 kts 256°
2026-04-21 03:29 37.61833 -104.64171 34269 ft 432 kts 256°
2026-04-21 03:29 37.60189 -104.71498 34280 ft 432 kts 255°
2026-04-21 03:30 37.58532 -104.78873 34298 ft 433 kts 256°
2026-04-21 03:30 37.56884 -104.86184 34312 ft 434 kts 255°
2026-04-21 03:31 37.55224 -104.93519 34328 ft 434 kts 255°
2026-04-21 03:31 37.53555 -105.00878 34324 ft 435 kts 255°
2026-04-21 03:32 37.51883 -105.08223 34343 ft 435 kts 255°
2026-04-21 03:32 37.50207 -105.15557 34381 ft 434 kts 256°
2026-04-21 03:33 37.48535 -105.22852 34402 ft 435 kts 256°
2026-04-21 03:33 37.46858 -105.30156 34416 ft 436 kts 256°
2026-04-21 03:34 37.45163 -105.37511 34411 ft 436 kts 256°
2026-04-21 03:34 37.43472 -105.44825 34401 ft 437 kts 256°
2026-04-21 03:35 37.41763 -105.52199 34384 ft 437 kts 256°
2026-04-21 03:35 37.40037 -105.59615 34371 ft 437 kts 256°
2026-04-21 03:36 37.38319 -105.66983 34355 ft 438 kts 255°
2026-04-21 03:36 37.36606 -105.74308 34329 ft 438 kts 255°
2026-04-21 03:37 37.34875 -105.81679 34317 ft 438 kts 256°
2026-04-21 03:37 37.33286 -105.89120 34300 ft 438 kts 257°
2026-04-21 03:38 37.31742 -105.96581 34307 ft 439 kts 257°
2026-04-21 03:38 37.30186 -106.04019 34332 ft 439 kts 257°
2026-04-21 03:39 37.28621 -106.11462 34359 ft 439 kts 257°
2026-04-21 03:39 37.27037 -106.18948 34379 ft 439 kts 257°
2026-04-21 03:40 37.25461 -106.26387 34390 ft 439 kts 257°
2026-04-21 03:40 37.23877 -106.33814 34401 ft 439 kts 257°
2026-04-21 03:41 37.22297 -106.41217 34415 ft 438 kts 257°
2026-04-21 03:41 37.20703 -106.48638 34435 ft 439 kts 257°
2026-04-21 03:42 37.19103 -106.56084 34439 ft 439 kts 257°
2026-04-21 03:42 37.17509 -106.63470 34429 ft 439 kts 257°
2026-04-21 03:43 37.15897 -106.70912 34409 ft 440 kts 257°
2026-04-21 03:43 37.14296 -106.78288 34388 ft 439 kts 257°
2026-04-21 03:44 37.12674 -106.85720 34396 ft 442 kts 257°
2026-04-21 03:44 37.11861 -106.89444 34519 ft 446 kts 257°
2026-04-21 03:44 37.11029 -106.93253 34738 ft 448 kts 257°
2026-04-21 03:45 37.10209 -106.96991 35019 ft 448 kts 257°
2026-04-21 03:45 37.09378 -107.00771 35294 ft 447 kts 257°
2026-04-21 03:45 37.08555 -107.04519 35549 ft 448 kts 257°
2026-04-21 03:45 37.07729 -107.08264 35812 ft 448 kts 257°
2026-04-21 03:46 37.06910 -107.11970 36066 ft 447 kts 257°
2026-04-21 03:46 37.06074 -107.15753 36297 ft 448 kts 257°
2026-04-21 03:46 37.04407 -107.23277 36318 ft 448 kts 257°
2026-04-21 03:47 37.02736 -107.30789 36304 ft 448 kts 257°
2026-04-21 03:47 37.01056 -107.38324 36280 ft 449 kts 257°
2026-04-21 03:48 36.99365 -107.45881 36291 ft 450 kts 257°
2026-04-21 03:48 36.97666 -107.53448 36274 ft 450 kts 257°
2026-04-21 03:49 36.95970 -107.60981 36274 ft 450 kts 257°
2026-04-21 03:49 36.94269 -107.68506 36271 ft 451 kts 256°
2026-04-21 03:50 36.92547 -107.76105 36266 ft 451 kts 256°
2026-04-21 03:50 36.90819 -107.83691 36258 ft 452 kts 256°
2026-04-21 03:51 36.89093 -107.91258 36250 ft 452 kts 257°
2026-04-21 03:51 36.87376 -107.98756 36236 ft 452 kts 257°
2026-04-21 03:52 36.85636 -108.06337 36218 ft 452 kts 257°
2026-04-21 03:52 36.83918 -108.13799 36210 ft 451 kts 256°
2026-04-21 03:53 36.82172 -108.21351 36192 ft 451 kts 256°
2026-04-21 03:53 36.80423 -108.28887 36183 ft 452 kts 257°
2026-04-21 03:54 36.78680 -108.36378 36175 ft 451 kts 257°
2026-04-21 03:54 36.76933 -108.43867 36190 ft 451 kts 256°
2026-04-21 03:55 36.75171 -108.51401 36192 ft 450 kts 256°
2026-04-21 03:55 36.73408 -108.58910 36214 ft 449 kts 256°
2026-04-21 03:56 36.71650 -108.66370 36219 ft 450 kts 256°
2026-04-21 03:56 36.69882 -108.73848 36238 ft 450 kts 256°
2026-04-21 03:57 36.68102 -108.81355 36249 ft 450 kts 256°
2026-04-21 03:57 36.66334 -108.88793 36247 ft 450 kts 256°
2026-04-21 03:58 36.64550 -108.96279 36265 ft 449 kts 256°
2026-04-21 03:58 36.62775 -109.03700 36273 ft 449 kts 256°
2026-04-21 03:59 36.60992 -109.11131 36297 ft 448 kts 255°
2026-04-21 04:00 36.58314 -109.22247 36293 ft 448 kts 255°
2026-04-21 04:00 36.56531 -109.29617 36292 ft 448 kts 255°
2026-04-21 04:01 36.54733 -109.37038 36276 ft 447 kts 255°
2026-04-21 04:01 36.52930 -109.44446 36260 ft 447 kts 255°
2026-04-21 04:02 36.51139 -109.51791 36245 ft 446 kts 255°
2026-04-21 04:02 36.49336 -109.59161 36238 ft 446 kts 255°
2026-04-21 04:03 36.47533 -109.66505 36234 ft 446 kts 254°
2026-04-21 04:03 36.45720 -109.73869 36240 ft 447 kts 254°
2026-04-21 04:04 36.43905 -109.81220 36243 ft 446 kts 254°
2026-04-21 04:04 36.42087 -109.88561 36258 ft 445 kts 254°
2026-04-21 04:05 36.40262 -109.95909 36258 ft 445 kts 254°
2026-04-21 04:05 36.38440 -110.03229 36262 ft 444 kts 254°
2026-04-21 04:06 36.36615 -110.10535 36268 ft 444 kts 254°
2026-04-21 04:06 36.34779 -110.17862 36268 ft 443 kts 254°
2026-04-21 04:07 36.32948 -110.25145 36269 ft 443 kts 254°
2026-04-21 04:07 36.31112 -110.32433 36268 ft 443 kts 254°
2026-04-21 04:08 36.29272 -110.39716 36265 ft 442 kts 254°
2026-04-21 04:08 36.27434 -110.46970 36262 ft 442 kts 253°
2026-04-21 04:09 36.25600 -110.54183 36261 ft 442 kts 253°
2026-04-21 04:09 36.23756 -110.61425 36248 ft 440 kts 253°
2026-04-21 04:10 36.21909 -110.68649 36243 ft 440 kts 253°
2026-04-21 04:10 36.20066 -110.75836 36236 ft 439 kts 252°
2026-04-21 04:11 36.18212 -110.83048 36231 ft 439 kts 252°
2026-04-21 04:11 36.16361 -110.90234 36226 ft 439 kts 252°
2026-04-21 04:12 36.14510 -110.97395 36223 ft 438 kts 252°
2026-04-21 04:12 36.12660 -111.04533 36212 ft 438 kts 252°
2026-04-21 04:13 36.10788 -111.11726 36206 ft 437 kts 252°
2026-04-21 04:13 36.08919 -111.18898 36206 ft 437 kts 252°
2026-04-21 04:14 36.07058 -111.26022 36201 ft 436 kts 252°
2026-04-21 04:14 36.05203 -111.33104 36200 ft 436 kts 252°
2026-04-21 04:15 36.03334 -111.40219 36201 ft 436 kts 252°
2026-04-21 04:15 36.01532 -111.47059 36199 ft 436 kts 252°
2026-04-21 04:16 35.99658 -111.54150 36204 ft 434 kts 252°
2026-04-21 04:16 35.97785 -111.61221 36213 ft 434 kts 252°
2026-04-21 04:17 35.95902 -111.68310 36223 ft 434 kts 251°
2026-04-21 04:17 35.94023 -111.75372 36247 ft 433 kts 251°
2026-04-21 04:18 35.92147 -111.82394 36253 ft 433 kts 250°
2026-04-21 04:18 35.90577 -111.88259 36256 ft 432 kts 250°
2026-04-21 04:19 35.88387 -111.96413 36254 ft 432 kts 251°
2026-04-21 04:19 35.86486 -112.03477 36246 ft 431 kts 250°
2026-04-21 04:20 35.84610 -112.10430 36235 ft 430 kts 250°
2026-04-21 04:20 35.82723 -112.17405 36226 ft 429 kts 250°
2026-04-21 04:21 35.80826 -112.24395 36236 ft 429 kts 250°
2026-04-21 04:21 35.78939 -112.31334 36244 ft 429 kts 250°
2026-04-21 04:22 35.77051 -112.38260 36239 ft 428 kts 250°
2026-04-21 04:22 35.75149 -112.45214 36242 ft 428 kts 250°
2026-04-21 04:23 35.73249 -112.52144 36240 ft 428 kts 250°
2026-04-21 04:23 35.71332 -112.59123 36236 ft 428 kts 250°
2026-04-21 04:24 35.69751 -112.64864 36238 ft 427 kts 250°
2026-04-21 04:24 35.67549 -112.72835 36240 ft 426 kts 249°
2026-04-21 04:25 35.65630 -112.79768 36244 ft 426 kts 249°
2026-04-21 04:25 35.63717 -112.86655 36246 ft 425 kts 250°
2026-04-21 04:26 35.61809 -112.93510 36246 ft 425 kts 249°
2026-04-21 04:26 35.60214 -112.99230 36249 ft 426 kts 249°
2026-04-21 04:27 35.57983 -113.07208 36241 ft 425 kts 249°
2026-04-21 04:27 35.56054 -113.14088 36233 ft 424 kts 249°
2026-04-21 04:28 35.54127 -113.20937 36219 ft 424 kts 249°
2026-04-21 04:28 35.52184 -113.27837 36209 ft 424 kts 249°
2026-04-21 04:29 35.50261 -113.34645 36203 ft 423 kts 249°
2026-04-21 04:29 35.48334 -113.41447 36185 ft 422 kts 249°
2026-04-21 04:30 35.46413 -113.48212 36175 ft 422 kts 249°
2026-04-21 04:30 35.44479 -113.55009 36164 ft 421 kts 249°
2026-04-21 04:31 35.42551 -113.61765 36160 ft 421 kts 249°
2026-04-21 04:31 35.40619 -113.68522 36159 ft 420 kts 249°
2026-04-21 04:32 35.38681 -113.75285 36137 ft 420 kts 249°
2026-04-21 04:32 35.36742 -113.82027 36128 ft 419 kts 249°
2026-04-21 04:33 35.35122 -113.87652 36106 ft 419 kts 249°
2026-04-21 04:33 35.32864 -113.95476 36087 ft 419 kts 249°
2026-04-21 04:34 35.30930 -114.02161 36076 ft 418 kts 249°
2026-04-21 04:34 35.28991 -114.08839 36079 ft 418 kts 249°
2026-04-21 04:35 35.27048 -114.15522 36073 ft 418 kts 249°
2026-04-21 04:35 35.25090 -114.22240 36065 ft 418 kts 249°
2026-04-21 04:36 35.23146 -114.28901 36057 ft 417 kts 249°
2026-04-21 04:36 35.21195 -114.35565 36026 ft 417 kts 249°
2026-04-21 04:37 35.19201 -114.42361 35999 ft 417 kts 249°
2026-04-21 04:37 35.17257 -114.48973 35976 ft 417 kts 249°
2026-04-21 04:38 35.15281 -114.55676 35960 ft 418 kts 249°
2026-04-21 04:38 35.13300 -114.62296 35979 ft 416 kts 247°
2026-04-21 04:39 35.11069 -114.68774 36003 ft 416 kts 245°
2026-04-21 04:39 35.08818 -114.75255 36026 ft 415 kts 245°
2026-04-21 04:40 35.06563 -114.81730 36037 ft 414 kts 245°
2026-04-21 04:40 35.04307 -114.88186 36041 ft 415 kts 244°
2026-04-21 04:41 35.01781 -114.94448 36035 ft 419 kts 240°
2026-04-21 04:41 34.99030 -115.00797 36023 ft 429 kts 240°
2026-04-21 04:42 34.96206 -115.07304 36018 ft 436 kts 240°
2026-04-21 04:42 34.93378 -115.13818 36021 ft 438 kts 240°
2026-04-21 04:43 34.90541 -115.20342 36012 ft 438 kts 240°
2026-04-21 04:43 34.87687 -115.26891 36008 ft 438 kts 240°
2026-04-21 04:44 34.84828 -115.33441 36008 ft 438 kts 240°
2026-04-21 04:44 34.81956 -115.40008 36007 ft 437 kts 240°
2026-04-21 04:45 34.79134 -115.46594 35999 ft 438 kts 243°
2026-04-21 04:45 34.76619 -115.53349 36000 ft 439 kts 244°
2026-04-21 04:46 34.74125 -115.60126 35999 ft 439 kts 244°
2026-04-21 04:46 34.71627 -115.66910 35996 ft 439 kts 243°
2026-04-21 04:47 34.69135 -115.73656 35993 ft 439 kts 244°
2026-04-21 04:47 34.66647 -115.80385 35990 ft 438 kts 243°
2026-04-21 04:48 34.64141 -115.87142 35970 ft 439 kts 243°
2026-04-21 04:48 34.61649 -115.93872 35962 ft 439 kts 244°
2026-04-21 04:49 34.59170 -116.00590 35960 ft 439 kts 244°
2026-04-21 04:49 34.56668 -116.07369 35962 ft 439 kts 244°
2026-04-21 04:50 34.54196 -116.14047 35604 ft 427 kts 244°
2026-04-21 04:50 34.53008 -116.17261 35223 ft 419 kts 244°
2026-04-21 04:50 34.51821 -116.20461 34757 ft 413 kts 244°
2026-04-21 04:50 34.50654 -116.23598 34198 ft 409 kts 244°
2026-04-21 04:51 34.49492 -116.26724 33602 ft 408 kts 244°
2026-04-21 04:51 34.48324 -116.29864 33002 ft 408 kts 244°
2026-04-21 04:51 34.47164 -116.32986 32354 ft 409 kts 244°
2026-04-21 04:51 34.45989 -116.36135 31647 ft 411 kts 244°
2026-04-21 04:52 34.45210 -116.38226 31164 ft 412 kts 244°
2026-04-21 04:52 34.43649 -116.42405 30207 ft 414 kts 244°
2026-04-21 04:52 34.42861 -116.44513 29857 ft 412 kts 244°
2026-04-21 04:52 34.41260 -116.48686 29195 ft 407 kts 242°
2026-04-21 04:53 34.40005 -116.51750 28710 ft 403 kts 242°
2026-04-21 04:53 34.38772 -116.54747 28264 ft 399 kts 242°
2026-04-21 04:53 34.37543 -116.57734 27823 ft 401 kts 242°
2026-04-21 04:53 34.36298 -116.60753 27350 ft 401 kts 241°
2026-04-21 04:54 34.35055 -116.63767 26891 ft 397 kts 241°
2026-04-21 04:54 34.33820 -116.66761 26406 ft 395 kts 240°
2026-04-21 04:54 34.32616 -116.69707 25909 ft 392 kts 241°
2026-04-21 04:54 34.31421 -116.72680 25379 ft 390 kts 241°
2026-04-21 04:55 34.30247 -116.75608 24885 ft 386 kts 240°
2026-04-21 04:55 34.29088 -116.78496 24399 ft 384 kts 240°
2026-04-21 04:55 34.27931 -116.81372 23921 ft 381 kts 240°
2026-04-21 04:55 34.26786 -116.84218 23464 ft 378 kts 240°
2026-04-21 04:56 34.25641 -116.87060 22962 ft 376 kts 240°
2026-04-21 04:56 34.24498 -116.89887 22531 ft 372 kts 240°
2026-04-21 04:56 34.23362 -116.92699 22033 ft 370 kts 240°
2026-04-21 04:56 34.22247 -116.95455 21549 ft 368 kts 240°
2026-04-21 04:57 34.21218 -116.98245 21109 ft 366 kts 244°
2026-04-21 04:57 34.20330 -117.01130 20679 ft 365 kts 247°
2026-04-21 04:57 34.19541 -117.04024 20277 ft 364 kts 248°
2026-04-21 04:57 34.18761 -117.06924 19892 ft 362 kts 248°
2026-04-21 04:58 34.17984 -117.09815 19512 ft 360 kts 248°
2026-04-21 04:58 34.17222 -117.12635 19092 ft 357 kts 248°
2026-04-21 04:58 34.16448 -117.15484 18603 ft 356 kts 248°
2026-04-21 04:58 34.15677 -117.18296 18142 ft 353 kts 248°
2026-04-21 04:59 34.14905 -117.21101 17708 ft 350 kts 248°
2026-04-21 04:59 34.14142 -117.23873 17289 ft 347 kts 248°
2026-04-21 04:59 34.13388 -117.26614 16857 ft 344 kts 248°
2026-04-21 04:59 34.12638 -117.29336 16157 ft 344 kts 248°
2026-04-21 05:00 34.11880 -117.32085 15635 ft 338 kts 248°
2026-04-21 05:00 34.11149 -117.34733 15179 ft 332 kts 248°
2026-04-21 05:00 34.09741 -117.40027 14304 ft 331 kts 250°
2026-04-21 05:01 34.09084 -117.42690 13861 ft 330 kts 250°
2026-04-21 05:01 34.08433 -117.45316 13432 ft 329 kts 250°
2026-04-21 05:01 34.07776 -117.47955 13015 ft 328 kts 250°
2026-04-21 05:01 34.07042 -117.50510 12846 ft 316 kts 246°
2026-04-21 05:02 34.06194 -117.52948 12406 ft 316 kts 244°
2026-04-21 05:02 34.05329 -117.55353 11956 ft 315 kts 244°
2026-04-21 05:02 34.04448 -117.57793 11502 ft 315 kts 244°
2026-04-21 05:02 34.03585 -117.60188 11066 ft 315 kts 244°
2026-04-21 05:03 34.02713 -117.62608 10626 ft 314 kts 244°
2026-04-21 05:03 34.01847 -117.65010 10296 ft 309 kts 244°
2026-04-21 05:03 34.01043 -117.67382 10061 ft 301 kts 249°
2026-04-21 05:03 34.00544 -117.69751 9913 ft 288 kts 257°
2026-04-21 05:04 34.00272 -117.72119 9536 ft 288 kts 260°
2026-04-21 05:04 34.00044 -117.74541 9141 ft 288 kts 261°
2026-04-21 05:04 33.99826 -117.76907 8763 ft 288 kts 260°
2026-04-21 05:04 33.99598 -117.79301 8393 ft 286 kts 261°
2026-04-21 05:05 33.99367 -117.81679 8019 ft 283 kts 261°
2026-04-21 05:05 33.99143 -117.83997 7712 ft 277 kts 261°
2026-04-21 05:05 33.98923 -117.86283 7444 ft 271 kts 261°
2026-04-21 05:05 33.98706 -117.88518 7183 ft 267 kts 261°
2026-04-21 05:06 33.98492 -117.90720 6941 ft 263 kts 261°
2026-04-21 05:06 33.98278 -117.92893 6669 ft 261 kts 261°
2026-04-21 05:06 33.98065 -117.95057 6454 ft 256 kts 261°
2026-04-21 05:06 33.97856 -117.97173 6143 ft 258 kts 261°
2026-04-21 05:07 33.97642 -117.99336 5859 ft 258 kts 261°
2026-04-21 05:07 33.97429 -118.01471 5615 ft 256 kts 262°
2026-04-21 05:07 33.97257 -118.03588 5406 ft 251 kts 263°
2026-04-21 05:07 33.97093 -118.05656 5220 ft 246 kts 263°
2026-04-21 05:08 33.96911 -118.07698 4991 ft 244 kts 262°
2026-04-21 05:08 33.96714 -118.09709 4671 ft 243 kts 262°
2026-04-21 05:08 33.96505 -118.11719 4350 ft 239 kts 262°
2026-04-21 05:08 33.96297 -118.13689 4032 ft 233 kts 262°
2026-04-21 05:09 33.96095 -118.15588 3727 ft 228 kts 262°
2026-04-21 05:09 33.95897 -118.17442 3500 ft 218 kts 262°
2026-04-21 05:09 33.95710 -118.19212 3252 ft 209 kts 262°
2026-04-21 05:09 33.95532 -118.20907 2937 ft 197 kts 262°
2026-04-21 05:10 33.95365 -118.22498 2653 ft 188 kts 262°
2026-04-21 05:10 33.95207 -118.24015 2390 ft 179 kts 262°
2026-04-21 05:10 33.95055 -118.25479 2149 ft 173 kts 262°
2026-04-21 05:10 33.94904 -118.26924 1932 ft 173 kts 262°
2026-04-21 05:11 33.94760 -118.28317 1712 ft 165 kts 262°
2026-04-21 05:11 33.94624 -118.29642 1527 ft 153 kts 262°
2026-04-21 05:11 33.94497 -118.30871 1319 ft 143 kts 262°
2026-04-21 05:11 33.94377 -118.32033 1127 ft 138 kts 262°
2026-04-21 05:12 33.94257 -118.33188 954 ft 137 kts 263°
2026-04-21 05:12 33.94141 -118.34322 767 ft 137 kts 263°
2026-04-21 05:12 33.94019 -118.35452 577 ft 135 kts 262°
2026-04-21 05:12 33.93900 -118.36576 408 ft 135 kts 263°
2026-04-21 05:13 33.93792 -118.37688 237 ft 134 kts 263°
2026-04-21 05:13 33.93683 -118.38797 110 ft 128 kts 263°
2026-04-21 05:13 33.93591 -118.39693 116 ft 84 kts 263°
2026-04-21 05:13 33.93540 -118.40196 124 ft 39 kts 263°
2026-04-21 05:14 33.93553 -118.40505 129 ft 34 kts 286°
2026-04-21 05:14 33.93595 -118.40681 132 ft 14 kts 275°
2026-04-21 05:14 33.93594 -118.40766 133 ft 7 kts 269°
2026-04-21 05:14 33.93610 -118.40854 134 ft 11 kts 300°
2026-04-21 05:15 33.93684 -118.40900 134 ft 12 kts 352°
2026-04-21 05:15 33.93770 -118.40897 135 ft 12 kts 39°
2026-04-21 05:15 33.93798 -118.40785 135 ft 16 kts 83°
2026-04-21 05:15 33.93812 -118.40644 134 ft 16 kts 83°
2026-04-21 05:16 33.93824 -118.40547 132 ft 8 kts 67°
2026-04-21 05:16 33.93886 -118.40532 132 ft 8 kts 353°
2026-04-21 05:16 33.93930 -118.40562 132 ft 5 kts 318°
2026-04-21 05:16 33.93953 -118.40587 132 ft 2 kts 318°
2026-04-21 05:17 33.93957 -118.40591 132 ft 0 kts 318°